Weather History for Christmas Island, IS

Change the Weather History Date:

Sunday, May 26, 2013

  Actual Average Record
Temperature  
Mean Temperature 77 °F -  
Max Temperature 81 °F 78 °F 84 °F (1998)
Min Temperature 73 °F 72 °F 73 °F (2012)
Cooling Degree Days 12    
Growing Degree Days 27 (Base 50)    
Moisture  
Dew Point 75 °F    
Average Humidity 93    
Maximum Humidity 100    
Minimum Humidity 85    
Precipitation  
Precipitation 0.31 in - - ()
Sea Level Pressure  
Sea Level Pressure 29.88 in    
Wind  
Wind Speed 10 mph ()    
Max Wind Speed 14 mph    
Max Gust Speed -    
Visibility 5.8 miles    
Events Rain    
Averages and records for this station are not official NWS values.
T = Trace of Precipitation, MM = Missing Value Source: Averaged Metar Reports

Daily Weather History Graph

Daily Weather History Graph

Search for Another Location

Airport:

Trip Planner

Search our weather history database for the weather conditions in past years. The results will help you decide how hot, cold, wet, or windy it might be!

Date:

Astronomy

May. 26, 2013 Rise Set
Actual Time 6:06 AM CXT 5:41 PM CXT
Civil Twilight 5:44 AM CXT 6:04 PM CXT
Nautical Twilight 5:18 AM CXT 6:30 PM CXT
Astronomical Twilight 4:52 AM CXT 6:55 PM CXT
Moon 7:00 PM CXT (5/26) 6:59 AM CXT (5/26)
Length of Visible Light 12h 19m
Length of Day
11h 34m
Full, 98% of the Moon is Illuminated
May 26
Full
Jun 1
Last Quarter
Jun 8
New
Jun 17
First Quarter
Jun 23
Full

Hourly Weather History & Observations

Time (CXT) Temp. Heat Index Dew Point Humidity Pressure Visibility Wind Dir Wind Speed Gust Speed Precip Events Conditions
12:00 AM 78 °F - 76 °F 91% 29.87 in - SE 9.2 mph - -   Overcast
12:00 AM 78.8 °F - 75.2 °F 89% 29.92 in 6.2 mi SE 9.2 mph - N/A   Mostly Cloudy
12:07 AM 77.0 °F - 75.2 °F 94% 29.92 in 3.7 mi SE 13.8 mph - N/A Rain Rain
12:26 AM 77.0 °F - 75.2 °F 94% 29.92 in 6.2 mi SE 10.4 mph - N/A Rain Light Rain Showers
12:34 AM 77.0 °F - 75.2 °F 94% 29.92 in 6.2 mi SE 12.7 mph - N/A   Mostly Cloudy
1:00 AM 77 °F - 76 °F 94% 29.86 in - SE 9.2 mph - -  
1:00 AM 77.0 °F - 75.2 °F 94% 29.89 in 6.2 mi SE 9.2 mph - N/A   Mostly Cloudy
1:03 AM 78.8 °F - 77.0 °F 94% 29.89 in 6.2 mi SE 10.4 mph - N/A   Mostly Cloudy
2:00 AM 77.0 °F - 75.2 °F 94% 29.89 in - SE 12.7 mph - N/A   Overcast
2:16 AM 75.2 °F - 75.2 °F 100% 29.89 in - SE 11.5 mph - N/A Rain Light Rain Showers
2:21 AM 75.2 °F - 73.4 °F 94% 29.89 in - SE 10.4 mph - N/A Rain Light Rain Showers
2:24 AM 75.2 °F - 73.4 °F 94% 29.89 in 3.7 mi SE 9.2 mph - N/A Rain Light Rain Showers
2:34 AM 77.0 °F - 75.2 °F 94% 29.89 in - SE 9.2 mph - N/A   Overcast
3:00 AM 77 °F - 75 °F 92% 29.84 in - SE 12.7 mph - -   Overcast
3:00 AM 77.0 °F - 75.2 °F 94% 29.89 in 6.2 mi SE 12.7 mph - N/A   Mostly Cloudy
4:00 AM 78 °F - 75 °F 89% 29.83 in - SE 12.7 mph - -  
4:00 AM 77.0 °F - 75.2 °F 94% 29.86 in 6.2 mi SE 12.7 mph - N/A   Mostly Cloudy
4:09 AM 77.0 °F - 75.2 °F 94% 29.86 in 3.7 mi ESE 13.8 mph - N/A Rain Light Rain Showers
4:22 AM 77.0 °F - 75.2 °F 94% 29.86 in 6.2 mi SE 10.4 mph - N/A   Overcast
4:29 AM 77.0 °F - 75.2 °F 94% 29.86 in 6.2 mi SE 9.2 mph - N/A Rain Light Rain Showers
4:50 AM 77.0 °F - 75.2 °F 94% 29.86 in - SE 10.4 mph - N/A   Overcast
5:00 AM 77.0 °F - 75.2 °F 94% 29.86 in - SE 11.5 mph - N/A   Mostly Cloudy
5:02 AM 77.0 °F - 75.2 °F 94% 29.86 in - SE 11.5 mph - N/A   Mostly Cloudy
5:29 AM 77.0 °F - 75.2 °F 94% 29.86 in 6.2 mi SE 11.5 mph - N/A   Mostly Cloudy
6:00 AM 77 °F - 75 °F 90% 29.84 in - SE 11.5 mph - -  
6:00 AM 77.0 °F - 75.2 °F 94% 29.89 in 6.2 mi SE 11.5 mph - N/A   Scattered Clouds
6:25 AM 77.0 °F - 75.2 °F 94% 29.89 in 6.2 mi SE 10.4 mph - N/A   Scattered Clouds
7:00 AM 76 °F - 73 °F 89% 29.86 in - East 12.7 mph - -  
7:00 AM 75.2 °F - 73.4 °F 94% 29.89 in 6.2 mi East 12.7 mph - N/A   Overcast
7:08 AM 75.2 °F - 73.4 °F 94% 29.92 in 3.1 mi East 12.7 mph - N/A Rain Light Rain Showers
7:27 AM 77.0 °F - 75.2 °F 94% 29.89 in - SE 8.1 mph - N/A   Overcast
7:32 AM 77.0 °F - 75.2 °F 94% 29.92 in - SE 9.2 mph - N/A   Overcast
7:34 AM 77.0 °F - 75.2 °F 94% 29.92 in - SE 9.2 mph - N/A   Overcast
7:50 AM 77.0 °F - 75.2 °F 94% 29.92 in 6.2 mi SE 11.5 mph - N/A   Overcast
8:00 AM 75.2 °F - 73.4 °F 94% 29.92 in 6.2 mi East 10.4 mph - N/A Rain Light Rain Showers
8:13 AM 75.2 °F - 73.4 °F 94% 29.92 in 3.7 mi SE 12.7 mph - N/A Rain Rain Showers
8:25 AM 75.2 °F - 73.4 °F 94% 29.92 in - ESE 4.6 mph - N/A Rain Heavy Rain Showers
8:28 AM 75.2 °F - 73.4 °F 94% 29.92 in - ESE 4.6 mph - N/A Rain Heavy Rain Showers
9:00 AM 78 °F - 76 °F 91% 29.88 in - SE 8.1 mph - -  
9:00 AM 77.0 °F - 75.2 °F 94% 29.92 in - SE 8.1 mph - N/A   Scattered Clouds
9:16 AM 78.8 °F - 77.0 °F 94% 29.92 in 6.2 mi SE 8.1 mph - N/A   Mostly Cloudy
10:00 AM 79 °F - 76 °F 87% 29.87 in - SE 11.5 mph - -  
10:00 AM 78.8 °F - 75.2 °F 89% 29.92 in 6.2 mi SE 11.5 mph - N/A   Overcast
10:53 AM 80.6 °F 87.1 °F 77.0 °F 89% 29.92 in 6.2 mi SE 12.7 mph - N/A   Mostly Cloudy
11:00 AM 80.6 °F 87.1 °F 77.0 °F 89% 29.92 in 6.2 mi SE 12.7 mph - N/A   Mostly Cloudy
11:11 AM 80.6 °F 87.1 °F 77.0 °F 89% 29.89 in 6.2 mi ESE 12.7 mph - N/A   Mostly Cloudy
11:26 AM 80.6 °F 87.1 °F 77.0 °F 89% 29.89 in 6.2 mi ESE 12.7 mph - N/A   Mostly Cloudy
11:31 AM 80.6 °F 87.1 °F 77.0 °F 89% 29.89 in 6.2 mi ESE 12.7 mph - N/A   Mostly Cloudy
12:00 PM 80 °F - 76 °F 85% 29.85 in - SE 11.5 mph - -   Overcast
12:00 PM 80.6 °F 87.1 °F 77.0 °F 89% 29.89 in 6.2 mi SE 11.5 mph - N/A   Overcast
1:00 PM 77 °F - 76 °F 95% 29.83 in - ESE 10.4 mph - -  
1:00 PM 77.0 °F - 75.2 °F 94% 29.86 in 6.2 mi ESE 10.4 mph - N/A Rain Light Rain Showers
1:25 PM 78.8 °F - 75.2 °F 89% 29.86 in 6.2 mi SE 10.4 mph - N/A   Mostly Cloudy
2:00 PM 78.8 °F - 75.2 °F 89% 29.86 in 6.2 mi ESE 9.2 mph - N/A   Unknown
2:59 PM 77.0 °F - 75.2 °F 94% 29.83 in 6.2 mi ESE 10.4 mph - N/A Rain Heavy Rain
3:00 PM 76 °F - 75 °F 96% 29.81 in - ESE 10.4 mph - -   Overcast
3:00 PM 77.0 °F - 75.2 °F 94% 29.83 in 6.2 mi ESE 10.4 mph - N/A Rain Heavy Rain
3:07 PM 77.0 °F - 75.2 °F 94% 29.86 in - SE 9.2 mph - N/A   Overcast
3:22 PM 77.0 °F - 75.2 °F 94% 29.83 in - ESE 11.5 mph - N/A   Overcast
3:58 PM 78.8 °F - 77.0 °F 94% 29.83 in 6.2 mi SE 9.2 mph - N/A   Overcast
4:00 PM 78 °F - 76 °F 93% 29.81 in - SE 9.2 mph - -  
4:00 PM 78.8 °F - 77.0 °F 94% 29.83 in 6.2 mi SE 9.2 mph - N/A   Overcast
4:59 PM 77.0 °F - 75.2 °F 94% 29.83 in 6.2 mi SE 11.5 mph - N/A Rain Light Rain Showers
5:00 PM 77.0 °F - 75.2 °F 94% 29.83 in 6.2 mi SE 11.5 mph - N/A   Overcast
5:07 PM 77.0 °F - 75.2 °F 94% 29.86 in - SE 10.4 mph - N/A   Overcast
6:00 PM 77 °F - 75 °F 93% 29.82 in - SE 10.4 mph - -   Overcast
6:00 PM 77.0 °F - 75.2 °F 94% 29.86 in 6.2 mi SE 10.4 mph - N/A   Mostly Cloudy
7:00 PM 78 °F - 76 °F 92% 29.83 in - SE 10.4 mph - -  
7:00 PM 77.0 °F - 77.0 °F 100% 29.86 in 6.2 mi SE 10.4 mph - N/A   Overcast
8:00 PM 77.0 °F - 77.0 °F 100% 29.89 in 6.2 mi SE 11.5 mph - N/A   Overcast
9:00 PM 78 °F - 76 °F 91% 29.87 in - SE 10.4 mph - -   Overcast
9:00 PM 77.0 °F - 75.2 °F 94% 29.92 in 6.2 mi SE 10.4 mph - N/A   Overcast
10:00 PM 77 °F - 76 °F 95% 29.88 in - SE 10.4 mph - -  
10:00 PM 77.0 °F - 75.2 °F 94% 29.92 in - SE 10.4 mph - N/A   Mostly Cloudy
11:00 PM 73.4 °F - 73.4 °F 100% 29.92 in 3.1 mi ESE 13.8 mph - N/A Rain Rain Showers
11:14 PM 73.4 °F - 73.4 °F 100% 29.92 in 6.2 mi ESE 9.2 mph - N/A Rain Light Rain Showers
11:18 PM 75.2 °F - 73.4 °F 94% 29.92 in 6.2 mi ESE 8.1 mph - N/A Rain Light Rain Showers